Time,TemperatureF,DewpointF,PressureIn,WindDirection,WindDirectionDegrees,WindSpeedMPH,WindSpeedGustMPH,Humidity,HourlyPrecipIn,Conditions,Clouds,dailyrainin,SoftwareType,DateUTC
2013-06-25 00:05:00,70.5,68.4,29.98,South,180,0.0,1.0,93,0.00,RA,,0.00,WeatherDisplay:10.37,2013-06-25 04:05:00,
2013-06-25 00:10:00,70.9,68.7,29.98,South,180,0.0,2.0,93,0.00,CLR,,0.00,WeatherDisplay:10.37,2013-06-25 04:10:00,
2013-06-25 00:15:00,70.9,68.8,29.98,South,180,0.0,2.0,93,0.00,CLR,,0.00,WeatherDisplay:10.37,2013-06-25 04:15:00,
2013-06-25 00:20:00,71.1,68.9,29.98,South,180,0.0,1.0,93,0.00,CLR,,0.00,WeatherDisplay:10.37,2013-06-25 04:20:00,
2013-06-25 00:25:00,71.1,68.9,29.98,South,180,0.0,1.0,93,0.00,CLR,,0.00,WeatherDisplay:10.37,2013-06-25 04:25:00,
2013-06-25 00:30:00,71.2,69.1,29.98,WSW,247,0.0,2.0,93,0.00,CLR,,0.00,WeatherDisplay:10.37,2013-06-25 04:30:00,
2013-06-25 00:35:00,71.1,68.9,29.98,NW,315,0.0,1.0,93,0.00,CLR,,0.00,WeatherDisplay:10.37,2013-06-25 04:35:00,
2013-06-25 00:40:00,71.1,68.9,29.98,NW,315,0.0,0.0,93,0.00,CLR,,0.00,WeatherDisplay:10.37,2013-06-25 04:40:00,
2013-06-25 00:45:00,71.1,68.9,29.97,NW,315,0.0,1.0,93,0.00,CLR,,0.00,WeatherDisplay:10.37,2013-06-25 04:45:00,
2013-06-25 00:50:00,71.1,68.9,29.98,NW,315,0.0,1.0,93,0.00,CLR,,0.00,WeatherDisplay:10.37,2013-06-25 04:50:00,
2013-06-25 01:00:00,70.5,68.7,29.97,NW,315,0.0,0.0,94,0.00,CLR,,0.00,WeatherDisplay:10.37,2013-06-25 05:00:00,
2013-06-25 01:05:00,70.3,68.5,29.97,NW,315,0.0,1.0,94,0.00,CLR,,0.00,WeatherDisplay:10.37,2013-06-25 05:05:00,
2013-06-25 01:10:00,70.2,68.4,29.97,NW,315,0.0,1.0,94,0.00,CLR,,0.00,WeatherDisplay:10.37,2013-06-25 05:10:00,
2013-06-25 01:15:00,70.3,68.5,29.97,NW,315,0.0,1.0,94,0.00,CLR,,0.00,WeatherDisplay:10.37,2013-06-25 05:15:00,
2013-06-25 01:20:00,70.2,68.4,29.96,NW,315,0.0,0.0,94,0.00,CLR,,0.00,WeatherDisplay:10.37,2013-06-25 05:20:00,
2013-06-25 01:25:00,70.2,68.4,29.96,NW,315,0.0,1.0,94,0.00,CLR,,0.00,WeatherDisplay:10.37,2013-06-25 05:25:00,
2013-06-25 01:30:00,70.2,68.4,29.96,NW,315,0.0,1.0,94,0.00,CLR,,0.00,WeatherDisplay:10.37,2013-06-25 05:30:00,
2013-06-25 01:35:00,70.0,68.2,29.96,NW,315,0.0,1.0,94,0.00,CLR,,0.00,WeatherDisplay:10.37,2013-06-25 05:35:00,
2013-06-25 01:40:00,70.0,68.2,29.96,NW,315,0.0,1.0,94,0.00,CLR,,0.00,WeatherDisplay:10.37,2013-06-25 05:40:00,
2013-06-25 01:50:00,69.7,68.5,29.95,NW,315,0.0,1.0,96,0.00,CLR,,0.00,WeatherDisplay:10.37,2013-06-25 05:50:00,
2013-06-25 02:00:00,69.4,68.2,29.95,NW,315,0.0,1.0,96,0.00,CLR,,0.00,WeatherDisplay:10.37,2013-06-25 06:00:00,
2013-06-25 02:05:00,69.4,68.2,29.95,NW,315,0.0,0.0,96,0.00,CLR,,0.00,WeatherDisplay:10.37,2013-06-25 06:05:00,
2013-06-25 02:15:00,69.3,68.1,29.95,NW,315,0.0,1.0,96,0.00,CLR,,0.00,WeatherDisplay:10.37,2013-06-25 06:15:00,
2013-06-25 02:20:00,69.3,68.1,29.95,NW,315,0.0,2.0,96,0.00,CLR,,0.00,WeatherDisplay:10.37,2013-06-25 06:20:00,
2013-06-25 02:30:00,69.3,68.1,29.94,NW,315,0.0,1.0,96,0.00,,,0.00,WeatherDisplay:10.37,2013-06-25 06:30:00,
2013-06-25 02:35:00,69.3,68.1,29.95,NW,315,0.0,1.0,96,0.00,,,0.00,WeatherDisplay:10.37,2013-06-25 06:35:00,
2013-06-25 02:45:00,69.3,68.1,29.94,NW,315,0.0,2.0,96,0.00,,,0.00,WeatherDisplay:10.37,2013-06-25 06:45:00,
2013-06-25 02:50:00,69.3,67.8,29.94,NW,315,0.0,2.0,95,0.00,,,0.00,WeatherDisplay:10.37,2013-06-25 06:50:00,
2013-06-25 03:00:00,69.3,67.8,29.94,NW,315,0.0,2.0,95,0.00,,,0.00,WeatherDisplay:10.37,2013-06-25 07:00:00,
2013-06-25 03:05:00,67.9,67.3,29.87,NW,321,0.0,2.0,98,0.00,FEW,,0.00,WeatherDisplay:10.37,2013-06-25 07:05:00,
2013-06-25 03:10:00,69.3,68.1,29.94,NW,316,0.0,1.0,96,0.00,FEW,,0.00,WeatherDisplay:10.37,2013-06-25 07:10:00,
2013-06-25 03:15:00,69.3,67.8,29.94,NW,315,0.0,2.0,95,0.00,,,0.00,WeatherDisplay:10.37,2013-06-25 07:15:00,
2013-06-25 03:20:00,69.3,67.8,29.94,NW,315,0.0,2.0,95,0.00,,,0.00,WeatherDisplay:10.37,2013-06-25 07:20:00,
2013-06-25 03:25:00,69.3,67.8,29.94,NW,315,0.0,2.0,95,0.00,,,0.00,WeatherDisplay:10.37,2013-06-25 07:25:00,
2013-06-25 03:30:00,69.1,67.6,29.94,NW,315,0.0,2.0,95,0.00,,,0.00,WeatherDisplay:10.37,2013-06-25 07:30:00,
2013-06-25 03:35:00,69.1,67.6,29.94,NW,315,0.0,1.0,95,0.00,,,0.00,WeatherDisplay:10.37,2013-06-25 07:35:00,
2013-06-25 03:40:00,69.1,67.6,29.94,NW,315,1.0,2.0,95,0.00,,,0.00,WeatherDisplay:10.37,2013-06-25 07:40:00,
2013-06-25 03:45:00,69.1,67.6,29.94,NW,315,0.0,2.0,95,0.00,FEW,,0.00,WeatherDisplay:10.37,2013-06-25 07:45:00,
2013-06-25 03:50:00,69.1,67.6,29.94,NW,315,1.0,2.0,95,0.00,FEW,,0.00,WeatherDisplay:10.37,2013-06-25 07:50:00,
2013-06-25 04:00:00,69.1,67.6,29.94,NW,315,0.0,2.0,95,0.00,FEW,,0.00,WeatherDisplay:10.37,2013-06-25 08:00:00,
2013-06-25 04:05:00,69.1,67.6,29.94,NW,315,0.0,2.0,95,0.00,,,0.00,WeatherDisplay:10.37,2013-06-25 08:05:00,
2013-06-25 04:10:00,69.1,67.6,29.94,NW,315,0.0,2.0,95,0.00,,,0.00,WeatherDisplay:10.37,2013-06-25 08:10:00,
2013-06-25 04:15:00,69.1,67.6,29.94,NW,315,0.0,2.0,95,0.00,FEW,,0.00,WeatherDisplay:10.37,2013-06-25 08:15:00,
2013-06-25 04:25:00,68.9,67.4,29.94,NW,315,0.0,2.0,95,0.00,FEW,,0.00,WeatherDisplay:10.37,2013-06-25 08:25:00,
2013-06-25 04:30:00,68.9,67.4,29.93,NW,315,0.0,2.0,95,0.00,FEW,,0.00,WeatherDisplay:10.37,2013-06-25 08:30:00,
2013-06-25 04:40:00,68.7,67.2,29.93,ENE,73,0.0,2.0,95,0.00,FEW,,0.00,WeatherDisplay:10.37,2013-06-25 08:40:00,
2013-06-25 04:50:00,68.7,67.2,29.93,SSE,148,1.0,2.0,95,0.00,FEW,,0.00,WeatherDisplay:10.37,2013-06-25 08:50:00,
2013-06-25 04:55:00,68.5,67.1,29.93,South,176,0.0,2.0,95,0.00,CLR,,0.00,WeatherDisplay:10.37,2013-06-25 08:55:00,
2013-06-25 05:00:00,68.5,67.1,29.93,South,180,0.0,1.0,95,0.00,CLR,,0.00,WeatherDisplay:10.37,2013-06-25 09:00:00,
2013-06-25 05:05:00,68.7,67.2,29.93,South,180,0.0,2.0,95,0.00,CLR,,0.00,WeatherDisplay:10.37,2013-06-25 09:05:00,
2013-06-25 05:10:00,68.7,67.2,29.93,South,180,0.0,2.0,95,0.00,CLR,,0.00,WeatherDisplay:10.37,2013-06-25 09:10:00,
2013-06-25 05:15:00,68.7,67.2,29.93,South,180,0.0,2.0,95,0.00,,,0.00,WeatherDisplay:10.37,2013-06-25 09:15:00,
2013-06-25 05:20:00,68.7,67.2,29.93,SSE,156,0.0,2.0,95,0.00,,,0.00,WeatherDisplay:10.37,2013-06-25 09:20:00,
2013-06-25 05:25:00,68.6,67.2,29.93,SSE,163,0.0,2.0,95,0.00,,,0.00,WeatherDisplay:10.37,2013-06-25 09:25:00,
2013-06-25 05:30:00,68.7,67.2,29.94,SSE,152,0.0,2.0,95,0.00,,,0.00,WeatherDisplay:10.37,2013-06-25 09:30:00,
2013-06-25 05:35:00,68.7,67.2,29.93,SE,146,1.0,2.0,95,0.00,,,0.00,WeatherDisplay:10.37,2013-06-25 09:35:00,
2013-06-25 05:40:00,68.5,67.1,29.93,South,169,1.0,2.0,95,0.00,,,0.00,WeatherDisplay:10.37,2013-06-25 09:40:00,
2013-06-25 05:45:00,68.5,67.1,29.93,SSE,160,0.0,2.0,95,0.00,,,0.00,WeatherDisplay:10.37,2013-06-25 09:45:00,
2013-06-25 05:50:00,68.5,67.1,29.93,SSE,158,1.0,2.0,95,0.00,,,0.00,WeatherDisplay:10.37,2013-06-25 09:50:00,
2013-06-25 06:00:00,68.5,67.1,29.93,South,180,0.0,2.0,95,0.00,,,0.00,WeatherDisplay:10.37,2013-06-25 10:00:00,
2013-06-25 06:05:00,68.5,67.1,29.94,South,180,0.0,1.0,95,0.00,,,0.00,WeatherDisplay:10.37,2013-06-25 10:05:00,
2013-06-25 06:10:00,68.5,67.1,29.94,South,180,0.0,1.0,95,0.00,,,0.00,WeatherDisplay:10.37,2013-06-25 10:10:00,
2013-06-25 06:15:00,68.5,67.1,29.94,South,180,0.0,1.0,95,0.00,,,0.00,WeatherDisplay:10.37,2013-06-25 10:15:00,
2013-06-25 06:20:00,68.7,67.2,29.94,SSE,151,0.0,2.0,95,0.00,,,0.00,WeatherDisplay:10.37,2013-06-25 10:20:00,
2013-06-25 06:25:00,68.7,67.2,29.94,East,100,0.0,1.0,95,0.00,FEW,,0.00,WeatherDisplay:10.37,2013-06-25 10:25:00,
2013-06-25 06:30:00,68.7,67.2,29.94,ESE,104,0.0,1.0,95,0.00,FEW,,0.00,WeatherDisplay:10.37,2013-06-25 10:30:00,
2013-06-25 06:35:00,68.9,67.4,29.94,East,101,0.0,2.0,95,0.00,FEW,,0.00,WeatherDisplay:10.37,2013-06-25 10:35:00,
2013-06-25 06:40:00,68.9,67.4,29.94,East,97,0.0,2.0,95,0.00,FEW,,0.00,WeatherDisplay:10.37,2013-06-25 10:40:00,
2013-06-25 06:45:00,69.0,67.5,29.94,SE,137,0.0,2.0,95,0.00,FEW,,0.00,WeatherDisplay:10.37,2013-06-25 10:45:00,
2013-06-25 06:50:00,69.1,67.6,29.94,SE,135,0.0,2.0,95,0.00,FEW,,0.00,WeatherDisplay:10.37,2013-06-25 10:50:00,
2013-06-25 06:55:00,69.3,67.8,29.94,SSE,160,0.0,2.0,95,0.00,FEW,,0.00,WeatherDisplay:10.37,2013-06-25 10:55:00,
2013-06-25 07:00:00,69.4,67.9,29.94,SSE,166,0.0,2.0,95,0.00,FEW,,0.00,WeatherDisplay:10.37,2013-06-25 11:00:00,
2013-06-25 07:05:00,69.6,68.1,29.94,ESE,117,0.0,2.0,95,0.00,FEW,,0.00,WeatherDisplay:10.37,2013-06-25 11:05:00,
2013-06-25 07:10:00,69.8,67.7,29.94,East,97,0.0,2.0,93,0.00,FEW,,0.00,WeatherDisplay:10.37,2013-06-25 11:10:00,
2013-06-25 07:15:00,70.0,67.9,29.94,SSE,157,0.0,2.0,93,0.00,CLR,,0.00,WeatherDisplay:10.37,2013-06-25 11:15:00,
2013-06-25 07:20:00,70.0,67.9,29.94,South,180,0.0,2.0,93,0.00,CLR,,0.00,WeatherDisplay:10.37,2013-06-25 11:20:00,
2013-06-25 07:25:00,70.2,68.0,29.94,South,182,0.0,2.0,93,0.00,CLR,,0.00,WeatherDisplay:10.37,2013-06-25 11:25:00,
2013-06-25 07:30:00,70.5,68.4,29.94,SSE,149,0.0,1.0,93,0.00,CLR,,0.00,WeatherDisplay:10.37,2013-06-25 11:30:00,
2013-06-25 07:35:00,70.6,68.4,29.94,SE,145,0.0,1.0,93,0.00,CLR,,0.00,WeatherDisplay:10.37,2013-06-25 11:35:00,
2013-06-25 07:40:00,70.9,68.8,29.94,South,173,0.0,2.0,93,0.00,CLR,,0.00,WeatherDisplay:10.37,2013-06-25 11:40:00,
2013-06-25 07:45:00,71.1,68.9,29.94,South,180,0.0,2.0,93,0.00,CLR,,0.00,WeatherDisplay:10.37,2013-06-25 11:45:00,
2013-06-25 07:50:00,71.4,69.3,29.94,NNE,29,0.0,1.0,93,0.00,CLR,,0.00,WeatherDisplay:10.37,2013-06-25 11:50:00,
2013-06-25 07:55:00,71.6,69.2,29.95,ESE,110,0.0,2.0,92,0.00,CLR,,0.00,WeatherDisplay:10.37,2013-06-25 11:55:00,
2013-06-25 08:00:00,72.0,69.2,29.94,SE,126,0.0,1.0,91,0.00,CLR,,0.00,WeatherDisplay:10.37,2013-06-25 12:00:00,
2013-06-25 08:05:00,72.2,69.4,29.95,East,94,0.0,2.0,91,0.00,CLR,,0.00,WeatherDisplay:10.37,2013-06-25 12:05:00,
2013-06-25 08:10:00,72.5,69.7,29.94,ESE,107,0.0,2.0,91,0.00,CLR,,0.00,WeatherDisplay:10.37,2013-06-25 12:10:00,
2013-06-25 08:15:00,72.9,70.1,29.94,SE,130,1.0,2.0,91,0.00,CLR,,0.00,WeatherDisplay:10.37,2013-06-25 12:15:00,
2013-06-25 08:20:00,73.2,70.4,29.94,ESE,120,1.0,2.0,91,0.00,CLR,,0.00,WeatherDisplay:10.37,2013-06-25 12:20:00,
2013-06-25 08:25:00,73.5,70.3,29.94,SE,135,0.0,2.0,90,0.00,CLR,,0.00,WeatherDisplay:10.37,2013-06-25 12:25:00,
2013-06-25 08:30:00,73.8,70.6,29.94,SE,132,0.0,2.0,90,0.00,CLR,,0.00,WeatherDisplay:10.37,2013-06-25 12:30:00,
2013-06-25 08:35:00,74.1,70.7,29.94,SW,226,1.0,2.0,89,0.00,CLR,,0.00,WeatherDisplay:10.37,2013-06-25 12:35:00,
2013-06-25 08:40:00,74.3,70.8,29.94,South,170,1.0,2.0,89,0.00,CLR,,0.00,WeatherDisplay:10.37,2013-06-25 12:40:00,
2013-06-25 08:45:00,74.7,70.9,29.94,NNW,348,0.0,2.0,88,0.00,CLR,,0.00,WeatherDisplay:10.37,2013-06-25 12:45:00,
2013-06-25 08:50:00,75.1,71.3,29.94,ESE,116,0.0,2.0,88,0.00,CLR,,0.00,WeatherDisplay:10.37,2013-06-25 12:50:00,
2013-06-25 08:55:00,75.5,71.4,29.94,SE,134,0.0,2.0,87,0.00,CLR,,0.00,WeatherDisplay:10.37,2013-06-25 12:55:00,
2013-06-25 09:00:00,75.7,71.3,29.94,SE,139,1.0,2.0,86,0.00,CLR,,0.00,WeatherDisplay:10.37,2013-06-25 13:00:00,
2013-06-25 09:05:00,76.2,71.7,29.94,NE,44,0.0,2.0,86,0.00,CLR,,0.00,WeatherDisplay:10.37,2013-06-25 13:05:00,
2013-06-25 09:10:00,76.6,72.1,29.94,North,352,1.0,2.0,86,0.00,CLR,,0.00,WeatherDisplay:10.37,2013-06-25 13:10:00,
2013-06-25 09:20:00,77.5,72.3,29.94,NE,55,1.0,2.0,84,0.00,CLR,,0.00,WeatherDisplay:10.37,2013-06-25 13:20:00,
2013-06-25 09:25:00,77.7,72.1,29.94,East,92,0.0,2.0,83,0.00,CLR,,0.00,WeatherDisplay:10.37,2013-06-25 13:25:00,
2013-06-25 09:35:00,78.2,72.6,29.93,ENE,63,1.0,2.0,83,0.00,CLR,,0.00,WeatherDisplay:10.37,2013-06-25 13:35:00,
2013-06-25 09:40:00,78.6,73.0,29.93,ENE,57,0.0,3.0,83,0.00,CLR,,0.00,WeatherDisplay:10.37,2013-06-25 13:40:00,
2013-06-25 09:50:00,79.1,73.1,29.93,East,80,0.0,2.0,82,0.00,CLR,,0.00,WeatherDisplay:10.37,2013-06-25 13:50:00,
2013-06-25 09:55:00,79.7,73.7,29.93,NNE,33,0.0,2.0,82,0.00,CLR,,0.00,WeatherDisplay:10.37,2013-06-25 13:55:00,
2013-06-25 10:00:00,80.1,73.7,29.93,NW,325,1.0,2.0,81,0.00,CLR,,0.00,WeatherDisplay:10.37,2013-06-25 14:00:00,
2013-06-25 10:05:00,80.4,74.1,29.93,ENE,61,0.0,2.0,81,0.00,CLR,,0.00,WeatherDisplay:10.37,2013-06-25 14:05:00,
2013-06-25 10:10:00,80.8,74.1,29.93,ENE,64,0.0,2.0,80,0.00,CLR,,0.00,WeatherDisplay:10.37,2013-06-25 14:10:00,
2013-06-25 10:15:00,81.1,74.0,29.93,NNE,29,1.0,2.0,79,0.00,CLR,,0.00,WeatherDisplay:10.37,2013-06-25 14:15:00,
2013-06-25 10:20:00,81.3,74.2,29.93,NW,314,0.0,2.0,79,0.00,CLR,,0.00,WeatherDisplay:10.37,2013-06-25 14:20:00,
2013-06-25 10:25:00,82.0,74.1,29.93,NW,322,1.0,3.0,77,0.00,CLR,,0.00,WeatherDisplay:10.37,2013-06-25 14:25:00,
2013-06-25 10:30:00,82.0,74.1,29.93,North,353,1.0,3.0,77,0.00,CLR,,0.00,WeatherDisplay:10.37,2013-06-25 14:30:00,
2013-06-25 10:35:00,82.0,74.1,29.93,North,0,1.0,3.0,77,0.00,CLR,,0.00,WeatherDisplay:10.37,2013-06-25 14:35:00,
2013-06-25 10:40:00,82.0,74.1,29.93,North,0,1.0,3.0,77,0.00,CLR,,0.00,WeatherDisplay:10.37,2013-06-25 14:40:00,
2013-06-25 10:50:00,83.5,74.3,29.93,NW,310,0.0,3.0,74,0.00,CLR,,0.00,WeatherDisplay:10.37,2013-06-25 14:50:00,
2013-06-25 10:55:00,83.5,74.3,29.93,SW,225,0.0,1.0,74,0.00,CLR,,0.00,WeatherDisplay:10.37,2013-06-25 14:55:00,
2013-06-25 11:00:00,83.5,74.3,29.94,WNW,294,0.0,1.0,74,0.00,CLR,,0.00,WeatherDisplay:10.37,2013-06-25 15:00:00,
2013-06-25 11:05:00,83.5,74.3,29.93,North,2,0.0,1.0,74,0.00,CLR,,0.00,WeatherDisplay:10.37,2013-06-25 15:05:00,
2013-06-25 11:10:00,85.3,75.6,29.93,North,355,1.0,2.0,73,0.00,CLR,,0.00,WeatherDisplay:10.37,2013-06-25 15:10:00,
2013-06-25 11:15:00,85.3,75.6,29.93,NW,309,1.0,2.0,73,0.00,CLR,,0.00,WeatherDisplay:10.37,2013-06-25 15:15:00,
2013-06-25 11:20:00,85.3,75.6,29.93,WNW,291,1.0,2.0,73,0.00,CLR,,0.00,WeatherDisplay:10.37,2013-06-25 15:20:00,
2013-06-25 11:25:00,86.2,75.2,29.93,SSW,204,1.0,3.0,70,0.00,CLR,,0.00,WeatherDisplay:10.37,2013-06-25 15:25:00,
2013-06-25 11:30:00,86.4,75.0,29.93,SE,134,1.0,3.0,69,0.00,CLR,,0.00,WeatherDisplay:10.37,2013-06-25 15:30:00,
2013-06-25 11:35:00,86.4,75.0,29.93,East,96,1.0,3.0,69,0.00,CLR,,0.00,WeatherDisplay:10.37,2013-06-25 15:35:00,
2013-06-25 11:40:00,86.9,75.1,29.93,East,89,0.0,3.0,68,0.00,CLR,,0.00,WeatherDisplay:10.37,2013-06-25 15:40:00,
2013-06-25 11:45:00,87.3,75.4,29.93,ESE,117,0.0,4.0,68,0.00,CLR,,0.00,WeatherDisplay:10.37,2013-06-25 15:45:00,
2013-06-25 11:50:00,87.6,75.7,29.93,SE,139,1.0,4.0,68,0.00,CLR,,0.00,WeatherDisplay:10.37,2013-06-25 15:50:00,
2013-06-25 11:55:00,87.6,75.3,29.93,SE,129,1.0,4.0,67,0.00,CLR,,0.00,WeatherDisplay:10.37,2013-06-25 15:55:00,
2013-06-25 12:00:00,87.8,75.5,29.93,ESE,116,1.0,3.0,67,0.00,CLR,,0.00,WeatherDisplay:10.37,2013-06-25 16:00:00,
2013-06-25 12:05:00,88.0,74.7,29.92,ESE,113,1.0,3.0,65,0.00,CLR,,0.00,WeatherDisplay:10.37,2013-06-25 16:05:00,
2013-06-25 12:10:00,88.4,75.1,29.92,NE,54,1.0,6.0,65,0.00,CLR,,0.00,WeatherDisplay:10.37,2013-06-25 16:10:00,
2013-06-25 12:15:00,89.0,75.2,29.92,East,94,1.0,3.0,64,0.00,CLR,,0.00,WeatherDisplay:10.37,2013-06-25 16:15:00,
2013-06-25 12:20:00,89.1,74.3,29.92,East,98,1.0,6.0,62,0.00,CLR,,0.00,WeatherDisplay:10.37,2013-06-25 16:20:00,
2013-06-25 12:25:00,89.6,74.9,29.92,NE,46,2.0,5.0,62,0.00,CLR,,0.00,WeatherDisplay:10.37,2013-06-25 16:25:00,
2013-06-25 12:30:00,90.1,74.4,29.91,ENE,70,1.0,5.0,60,0.00,CLR,,0.00,WeatherDisplay:10.37,2013-06-25 16:30:00,
2013-06-25 12:35:00,90.1,73.4,29.91,North,359,1.0,4.0,58,0.00,CLR,,0.00,WeatherDisplay:10.37,2013-06-25 16:35:00,
2013-06-25 12:40:00,90.7,73.9,29.91,NNW,329,1.0,3.0,58,0.00,CLR,,0.00,WeatherDisplay:10.37,2013-06-25 16:40:00,
2013-06-25 12:45:00,90.9,74.0,29.91,NE,42,1.0,4.0,58,0.00,CLR,,0.00,WeatherDisplay:10.37,2013-06-25 16:45:00,
2013-06-25 12:50:00,91.3,74.9,29.90,NNE,19,2.0,6.0,59,0.00,CLR,,0.00,WeatherDisplay:10.37,2013-06-25 16:50:00,
2013-06-25 12:55:00,91.8,74.4,29.90,NNE,29,1.0,6.0,57,0.00,CLR,,0.00,WeatherDisplay:10.37,2013-06-25 16:55:00,
2013-06-25 13:00:00,91.9,74.0,29.90,NE,43,1.0,5.0,56,0.00,CLR,,0.00,WeatherDisplay:10.37,2013-06-25 17:00:00,
2013-06-25 13:05:00,92.1,74.2,29.89,NNW,348,1.0,4.0,56,0.00,CLR,,0.00,WeatherDisplay:10.37,2013-06-25 17:05:00,
2013-06-25 13:10:00,92.1,73.6,29.89,NNE,19,0.0,3.0,55,0.00,CLR,,0.00,WeatherDisplay:10.37,2013-06-25 17:10:00,
2013-06-25 13:15:00,92.4,73.9,29.89,NE,53,1.0,4.0,55,0.00,CLR,,0.00,WeatherDisplay:10.37,2013-06-25 17:15:00,
2013-06-25 13:20:00,92.5,72.3,29.89,East,79,1.0,3.0,52,0.00,CLR,,0.00,WeatherDisplay:10.37,2013-06-25 17:20:00,
2013-06-25 13:30:00,92.6,75.2,29.88,NE,54,3.0,6.0,57,0.00,CLR,,0.00,WeatherDisplay:10.37,2013-06-25 17:30:00,
2013-06-25 13:40:00,93.9,71.9,29.88,ENE,67,1.0,5.0,49,0.00,CLR,,0.00,WeatherDisplay:10.37,2013-06-25 17:40:00,
2013-06-25 13:45:00,94.6,71.9,29.88,NNE,28,2.0,5.0,48,0.00,CLR,,0.00,WeatherDisplay:10.37,2013-06-25 17:45:00,
2013-06-25 13:50:00,95.0,71.6,29.88,South,186,2.0,5.0,47,0.00,CLR,,0.00,WeatherDisplay:10.37,2013-06-25 17:50:00,
2013-06-25 13:55:00,95.4,71.3,29.87,NE,43,1.0,5.0,46,0.00,CLR,,0.00,WeatherDisplay:10.37,2013-06-25 17:55:00,
2013-06-25 14:00:00,95.8,71.0,29.87,NNE,28,2.0,7.0,45,0.00,CLR,,0.00,WeatherDisplay:10.37,2013-06-25 18:00:00,
2013-06-25 14:05:00,96.3,72.1,29.87,NNE,30,2.0,5.0,46,0.00,FEW,,0.00,WeatherDisplay:10.37,2013-06-25 18:05:00,
2013-06-25 14:10:00,96.7,71.9,29.87,North,1,3.0,10.0,45,0.00,FEW,,0.00,WeatherDisplay:10.37,2013-06-25 18:10:00,
2013-06-25 14:15:00,97.0,70.8,29.87,North,353,2.0,10.0,43,0.00,FEW,,0.00,WeatherDisplay:10.37,2013-06-25 18:15:00,
2013-06-25 14:20:00,96.6,71.1,29.87,North,353,1.0,6.0,44,0.00,FEW,,0.00,WeatherDisplay:10.37,2013-06-25 18:20:00,
2013-06-25 14:25:00,95.9,71.1,29.87,NNE,17,1.0,6.0,45,0.00,FEW,,0.00,WeatherDisplay:10.37,2013-06-25 18:25:00,
2013-06-25 14:30:00,94.9,70.9,29.86,ENE,62,1.0,6.0,46,0.00,FEW,,0.00,WeatherDisplay:10.37,2013-06-25 18:30:00,
2013-06-25 14:35:00,94.1,70.8,29.86,NNE,24,2.0,6.0,47,0.00,FEW,,0.00,WeatherDisplay:10.37,2013-06-25 18:35:00,
2013-06-25 14:40:00,93.7,71.1,29.86,NNW,348,0.0,3.0,48,0.00,FEW,,0.00,WeatherDisplay:10.37,2013-06-25 18:40:00,
2013-06-25 14:50:00,93.5,70.8,29.86,East,87,2.0,5.0,48,0.00,FEW,,0.00,WeatherDisplay:10.37,2013-06-25 18:50:00,
2013-06-25 14:55:00,93.0,71.0,29.85,East,89,1.0,4.0,49,0.00,FEW,,0.00,WeatherDisplay:10.37,2013-06-25 18:55:00,
2013-06-25 15:00:00,92.7,70.1,29.85,East,90,1.0,4.0,48,0.00,FEW,,0.00,WeatherDisplay:10.37,2013-06-25 19:00:00,
2013-06-25 15:05:00,92.3,71.0,29.85,ESE,117,1.0,5.0,50,0.00,SCT,,0.00,WeatherDisplay:10.37,2013-06-25 19:05:00,
2013-06-25 15:15:00,91.9,71.2,29.84,NE,46,2.0,5.0,51,0.00,SCT,,0.00,WeatherDisplay:10.37,2013-06-25 19:15:00,
2013-06-25 15:20:00,91.8,69.9,29.85,SSE,161,2.0,4.0,49,0.00,SCT,,0.00,WeatherDisplay:10.37,2013-06-25 19:20:00,
2013-06-25 15:25:00,91.8,69.9,29.84,SW,225,0.0,6.0,49,0.00,SCT,,0.00,WeatherDisplay:10.37,2013-06-25 19:25:00,
2013-06-25 15:30:00,91.9,70.0,29.84,North,9,2.0,6.0,49,0.00,SCT,,0.00,WeatherDisplay:10.37,2013-06-25 19:30:00,
2013-06-25 15:35:00,91.8,69.9,29.84,SSE,160,1.0,6.0,49,0.00,SCT,,0.00,WeatherDisplay:10.37,2013-06-25 19:35:00,
2013-06-25 15:40:00,91.6,69.7,29.84,South,169,1.0,3.0,49,0.00,SCT,,0.00,WeatherDisplay:10.37,2013-06-25 19:40:00,
2013-06-25 15:45:00,91.2,70.0,29.84,NE,54,1.0,5.0,50,0.00,SCT,,0.00,WeatherDisplay:10.37,2013-06-25 19:45:00,
2013-06-25 15:50:00,90.7,70.1,29.85,NNE,27,3.0,6.0,51,0.00,SCT,,0.00,WeatherDisplay:10.37,2013-06-25 19:50:00,
2013-06-25 15:55:00,90.1,69.6,29.85,ENE,73,2.0,7.0,51,0.00,SCT,,0.00,WeatherDisplay:10.37,2013-06-25 19:55:00,
2013-06-25 16:00:00,89.5,70.7,29.86,ENE,63,1.0,7.0,54,0.00,SCT,,0.00,WeatherDisplay:10.37,2013-06-25 20:00:00,
2013-06-25 16:10:00,85.3,73.1,29.88,NW,305,3.0,10.0,67,0.06,RA,,0.06,WeatherDisplay:10.37,2013-06-25 20:10:00,
2013-06-25 16:15:00,82.5,72.6,29.88,WNW,301,2.0,5.0,72,0.13,-RA,,0.19,WeatherDisplay:10.37,2013-06-25 20:15:00,
2013-06-25 16:25:00,79.2,72.4,29.86,SSE,155,1.0,2.0,80,0.00,-RA,,0.21,WeatherDisplay:10.37,2013-06-25 20:25:00,
2013-06-25 16:30:00,78.2,73.0,29.86,SE,135,1.0,2.0,84,0.00,-RA,,0.21,WeatherDisplay:10.37,2013-06-25 20:30:00,
2013-06-25 16:40:00,77.0,73.2,29.85,SE,142,1.0,2.0,88,0.00,-RA,,0.21,WeatherDisplay:10.37,2013-06-25 20:40:00,
2013-06-25 16:45:00,76.8,73.7,29.85,SE,145,0.0,2.0,90,0.00,-RA,,0.21,WeatherDisplay:10.37,2013-06-25 20:45:00,
2013-06-25 16:50:00,76.6,74.1,29.85,SE,136,0.0,1.0,92,0.00,-RA,,0.21,WeatherDisplay:10.37,2013-06-25 20:50:00,
2013-06-25 17:00:00,77.0,74.9,29.84,ENE,78,0.0,2.0,93,0.00,-RA,,0.21,WeatherDisplay:10.37,2013-06-25 21:00:00,
2013-06-25 17:10:00,77.6,75.8,29.83,ENE,60,0.0,2.0,94,0.00,CLR,,0.21,WeatherDisplay:10.37,2013-06-25 21:10:00,
2013-06-25 17:15:00,78.1,76.5,29.83,ESE,108,0.0,1.0,95,0.00,CLR,,0.21,WeatherDisplay:10.37,2013-06-25 21:15:00,
2013-06-25 17:20:00,78.5,76.9,29.83,SE,129,0.0,1.0,95,0.00,CLR,,0.21,WeatherDisplay:10.37,2013-06-25 21:20:00,
2013-06-25 17:25:00,78.8,76.9,29.82,SE,135,0.0,1.0,94,0.00,CLR,,0.21,WeatherDisplay:10.37,2013-06-25 21:25:00,
2013-06-25 17:30:00,79.1,77.2,29.82,SE,135,0.0,1.0,94,0.00,CLR,,0.21,WeatherDisplay:10.37,2013-06-25 21:30:00,
2013-06-25 17:35:00,79.2,77.3,29.82,SE,128,0.0,2.0,94,0.00,CLR,,0.21,WeatherDisplay:10.37,2013-06-25 21:35:00,
2013-06-25 17:40:00,79.5,77.6,29.82,ESE,122,0.0,2.0,94,0.00,CLR,,0.21,WeatherDisplay:10.37,2013-06-25 21:40:00,
2013-06-25 17:45:00,79.8,77.9,29.82,ESE,121,0.0,2.0,94,0.00,CLR,,0.21,WeatherDisplay:10.37,2013-06-25 21:45:00,
2013-06-25 17:50:00,79.9,77.7,29.81,ENE,76,0.0,3.0,93,0.00,CLR,,0.21,WeatherDisplay:10.37,2013-06-25 21:50:00,
2013-06-25 17:55:00,80.1,77.9,29.80,East,84,1.0,2.0,93,0.00,CLR,,0.21,WeatherDisplay:10.37,2013-06-25 21:55:00,
2013-06-25 18:00:00,80.2,77.7,29.80,ESE,102,0.0,2.0,92,0.00,CLR,,0.21,WeatherDisplay:10.37,2013-06-25 22:00:00,
2013-06-25 18:10:00,80.4,77.9,29.80,ENE,57,0.0,2.0,92,0.00,CLR,,0.21,WeatherDisplay:10.37,2013-06-25 22:10:00,
2013-06-25 18:15:00,80.5,77.7,29.80,ENE,64,1.0,2.0,91,0.00,CLR,,0.21,WeatherDisplay:10.37,2013-06-25 22:15:00,
2013-06-25 18:20:00,80.6,77.1,29.80,NNE,29,1.0,5.0,89,0.00,CLR,,0.21,WeatherDisplay:10.37,2013-06-25 22:20:00,
2013-06-25 18:25:00,80.6,76.7,29.80,NNE,32,1.0,3.0,88,0.00,CLR,,0.21,WeatherDisplay:10.37,2013-06-25 22:25:00,
2013-06-25 18:30:00,80.4,76.2,29.80,ENE,71,1.0,4.0,87,0.00,CLR,,0.21,WeatherDisplay:10.37,2013-06-25 22:30:00,
2013-06-25 18:35:00,80.1,75.1,29.80,East,91,0.0,3.0,85,0.00,CLR,,0.21,WeatherDisplay:10.37,2013-06-25 22:35:00,
2013-06-25 18:40:00,79.9,75.3,29.80,East,85,0.0,2.0,86,0.00,CLR,,0.21,WeatherDisplay:10.37,2013-06-25 22:40:00,
2013-06-25 18:45:00,79.7,74.8,29.80,ENE,72,1.0,3.0,85,0.00,CLR,,0.21,WeatherDisplay:10.37,2013-06-25 22:45:00,
2013-06-25 18:50:00,79.5,74.6,29.81,East,79,0.0,5.0,85,0.00,CLR,,0.21,WeatherDisplay:10.37,2013-06-25 22:50:00,
2013-06-25 19:00:00,79.2,73.9,29.81,East,79,0.0,6.0,84,0.00,CLR,,0.21,WeatherDisplay:10.37,2013-06-25 23:00:00,
2013-06-25 19:05:00,79.0,73.8,29.81,East,97,1.0,3.0,84,0.00,CLR,,0.21,WeatherDisplay:10.37,2013-06-25 23:05:00,
2013-06-25 19:10:00,79.0,73.7,29.81,ESE,104,0.0,2.0,84,0.00,CLR,,0.21,WeatherDisplay:10.37,2013-06-25 23:10:00,
2013-06-25 19:20:00,78.8,73.6,29.81,East,79,0.0,3.0,84,0.00,CLR,,0.21,WeatherDisplay:10.37,2013-06-25 23:20:00,
2013-06-25 19:30:00,78.8,73.2,29.81,ENE,68,0.0,3.0,83,0.00,CLR,,0.21,WeatherDisplay:10.37,2013-06-25 23:30:00,
2013-06-25 19:35:00,78.8,72.8,29.81,NNE,33,0.0,2.0,82,0.00,CLR,,0.21,WeatherDisplay:10.37,2013-06-25 23:35:00,
2013-06-25 19:40:00,78.6,73.0,29.81,NE,49,0.0,2.0,83,0.00,CLR,,0.21,WeatherDisplay:10.37,2013-06-25 23:40:00,
2013-06-25 19:45:00,78.6,73.0,29.81,East,82,0.0,2.0,83,0.00,CLR,,0.21,WeatherDisplay:10.37,2013-06-25 23:45:00,
2013-06-25 19:50:00,78.4,72.8,29.82,ESE,116,0.0,2.0,83,0.00,CLR,,0.21,WeatherDisplay:10.37,2013-06-25 23:50:00,
2013-06-25 19:55:00,78.3,72.7,29.81,ESE,110,0.0,2.0,83,0.00,CLR,,0.21,WeatherDisplay:10.37,2013-06-25 23:55:00,
2013-06-25 20:00:00,78.3,72.7,29.82,ESE,102,0.0,2.0,83,0.00,CLR,,0.21,WeatherDisplay:10.37,2013-06-26 00:00:00,
2013-06-25 20:05:00,78.1,72.5,29.82,ENE,75,0.0,2.0,83,0.00,CLR,,0.21,WeatherDisplay:10.37,2013-06-26 00:05:00,
2013-06-25 20:10:00,78.1,72.5,29.82,ENE,73,1.0,2.0,83,0.00,CLR,,0.21,WeatherDisplay:10.37,2013-06-26 00:10:00,
2013-06-25 20:15:00,77.7,72.1,29.82,East,84,0.0,2.0,83,0.00,CLR,,0.21,WeatherDisplay:10.37,2013-06-26 00:15:00,
2013-06-25 20:20:00,77.7,72.1,29.82,East,86,0.0,2.0,83,0.00,CLR,,0.21,WeatherDisplay:10.37,2013-06-26 00:20:00,
2013-06-25 20:25:00,77.7,72.1,29.82,ENE,78,1.0,2.0,83,0.00,CLR,,0.21,WeatherDisplay:10.37,2013-06-26 00:25:00,
2013-06-25 20:30:00,77.5,72.0,29.82,ENE,70,0.0,2.0,83,0.00,CLR,,0.21,WeatherDisplay:10.37,2013-06-26 00:30:00,
2013-06-25 20:35:00,77.5,72.0,29.82,East,93,1.0,2.0,83,0.00,CLR,,0.21,WeatherDisplay:10.37,2013-06-26 00:35:00,
2013-06-25 20:40:00,77.4,72.1,29.81,SE,139,0.0,2.0,84,0.00,CLR,,0.21,WeatherDisplay:10.37,2013-06-26 00:40:00,
2013-06-25 20:45:00,77.2,71.6,29.82,SE,136,0.0,2.0,83,0.00,CLR,,0.21,WeatherDisplay:10.37,2013-06-26 00:45:00,
2013-06-25 20:50:00,77.1,71.5,29.82,ESE,120,0.0,2.0,83,0.00,CLR,,0.21,WeatherDisplay:10.37,2013-06-26 00:50:00,
2013-06-25 21:00:00,76.9,72.0,29.83,SE,130,0.0,2.0,85,0.00,CLR,,0.21,WeatherDisplay:10.37,2013-06-26 01:00:00,
2013-06-25 21:10:00,76.6,71.8,29.82,NE,55,0.0,2.0,85,0.00,CLR,,0.21,WeatherDisplay:10.37,2013-06-26 01:10:00,
2013-06-25 21:15:00,76.5,71.6,29.83,SE,132,1.0,2.0,85,0.00,CLR,,0.21,WeatherDisplay:10.37,2013-06-26 01:15:00,
2013-06-25 21:20:00,76.3,71.4,29.82,SE,131,0.0,2.0,85,0.00,CLR,,0.21,WeatherDisplay:10.37,2013-06-26 01:20:00,
2013-06-25 21:25:00,76.1,71.3,29.82,SE,135,0.0,2.0,85,0.00,CLR,,0.21,WeatherDisplay:10.37,2013-06-26 01:25:00,
2013-06-25 21:30:00,75.9,71.1,29.82,SE,135,0.0,2.0,85,0.00,CLR,,0.21,WeatherDisplay:10.37,2013-06-26 01:30:00,
2013-06-25 21:40:00,75.9,71.1,29.82,SE,127,1.0,2.0,85,0.00,CLR,,0.21,WeatherDisplay:10.37,2013-06-26 01:40:00,
2013-06-25 21:45:00,75.9,71.4,29.82,ESE,113,1.0,2.0,86,0.00,CLR,,0.21,WeatherDisplay:10.37,2013-06-26 01:45:00,
2013-06-25 21:50:00,75.9,71.4,29.82,East,91,0.0,1.0,86,0.00,CLR,,0.21,WeatherDisplay:10.37,2013-06-26 01:50:00,
2013-06-25 21:55:00,75.9,71.4,29.82,East,98,0.0,2.0,86,0.00,CLR,,0.21,WeatherDisplay:10.37,2013-06-26 01:55:00,
2013-06-25 22:00:00,75.9,71.4,29.82,ESE,121,0.0,2.0,86,0.00,CLR,,0.21,WeatherDisplay:10.37,2013-06-26 02:00:00,
2013-06-25 22:10:00,75.9,71.4,29.82,East,86,0.0,2.0,86,0.00,CLR,,0.21,WeatherDisplay:10.37,2013-06-26 02:10:00,
2013-06-25 22:15:00,75.7,71.3,29.83,East,90,0.0,2.0,86,0.00,CLR,,0.21,WeatherDisplay:10.37,2013-06-26 02:15:00,
2013-06-25 22:20:00,75.7,71.3,29.82,East,93,0.0,2.0,86,0.00,CLR,,0.21,WeatherDisplay:10.37,2013-06-26 02:20:00,
2013-06-25 22:25:00,75.7,71.3,29.83,NE,42,0.0,2.0,86,0.00,CLR,,0.21,WeatherDisplay:10.37,2013-06-26 02:25:00,
2013-06-25 22:30:00,75.7,71.3,29.83,North,0,0.0,1.0,86,0.00,CLR,,0.21,WeatherDisplay:10.37,2013-06-26 02:30:00,
2013-06-25 22:40:00,75.7,71.9,29.83,North,0,0.0,2.0,88,0.00,CLR,,0.21,WeatherDisplay:10.37,2013-06-26 02:40:00,
2013-06-25 22:45:00,75.7,71.9,29.83,ENE,62,1.0,2.0,88,0.00,CLR,,0.21,WeatherDisplay:10.37,2013-06-26 02:45:00,
2013-06-25 22:50:00,75.7,71.6,29.83,SE,136,0.0,2.0,87,0.00,CLR,,0.21,WeatherDisplay:10.37,2013-06-26 02:50:00,
2013-06-25 22:55:00,75.7,71.9,29.84,SW,216,1.0,3.0,88,0.00,CLR,,0.21,WeatherDisplay:10.37,2013-06-26 02:55:00,
2013-06-25 23:00:00,75.6,71.4,29.84,WNW,292,1.0,4.0,87,0.00,CLR,,0.21,WeatherDisplay:10.37,2013-06-26 03:00:00,
2013-06-25 23:05:00,75.6,71.4,29.83,NW,310,0.0,3.0,87,0.00,CLR,,0.21,WeatherDisplay:10.37,2013-06-26 03:05:00,
2013-06-25 23:10:00,75.7,71.6,29.83,NE,36,1.0,2.0,87,0.00,CLR,,0.21,WeatherDisplay:10.37,2013-06-26 03:10:00,
2013-06-25 23:20:00,75.6,71.4,29.82,ESE,116,0.0,2.0,87,0.00,BKN,,0.21,WeatherDisplay:10.37,2013-06-26 03:20:00,
2013-06-25 23:25:00,75.6,71.4,29.82,SE,135,0.0,2.0,87,0.00,BKN,,0.21,WeatherDisplay:10.37,2013-06-26 03:25:00,
2013-06-25 23:30:00,75.6,71.4,29.82,SE,135,0.0,0.0,87,0.00,BKN,,0.21,WeatherDisplay:10.37,2013-06-26 03:30:00,
2013-06-25 23:40:00,75.4,71.2,29.80,SE,135,0.0,2.0,87,0.00,BKN,,0.21,WeatherDisplay:10.37,2013-06-26 03:40:00,
2013-06-25 23:45:00,75.2,71.4,29.80,SE,145,1.0,2.0,88,0.00,BKN,,0.21,WeatherDisplay:10.37,2013-06-26 03:45:00,
2013-06-25 23:50:00,75.2,71.4,29.80,SSE,167,1.0,2.0,88,0.00,BKN,,0.21,WeatherDisplay:10.37,2013-06-26 03:50:00,
2013-06-25 23:55:00,75.1,71.3,29.80,South,179,1.0,2.0,88,0.00,BKN,,0.21,WeatherDisplay:10.37,2013-06-26 03:55:00,